| time (UTC) | temp F | wind direction | speed knots | gust knots | rain 1hr in | rain 24hr in | rain mn in | humidity % | barometer mb |
| 20260507142004 | 52 | 282 | 2.6 | 6.1 | 0.00 | 0.17 | 0.14 | 44 | 1018.8 |
| 20260507141504 | 50 | 207 | 1.7 | 7.8 | 0.00 | 0.17 | 0.14 | 42 | 1018.7 |
| 20260507141004 | 51 | 269 | 1.7 | 6.1 | 0.00 | 0.17 | 0.14 | 44 | 1018.8 |
| 20260507140003 | 51 | 245 | 2.6 | 6.1 | 0.00 | 0.17 | 0.14 | 45 | 1018.8 |
| 20260507135504 | 51 | 245 | 1.7 | 7.0 | 0.00 | 0.17 | 0.14 | 44 | 1018.7 |
| 20260507135003 | 51 | 253 | 2.6 | 7.0 | 0.00 | 0.17 | 0.14 | 44 | 1018.8 |
| 20260507134504 | 50 | 274 | 2.6 | 7.0 | 0.00 | 0.17 | 0.14 | 47 | 1018.8 |
| 20260507134004 | 49 | 268 | 2.6 | 7.8 | 0.00 | 0.17 | 0.14 | 50 | 1018.8 |
| 20260507133504 | 48 | 273 | 2.6 | 6.1 | 0.00 | 0.17 | 0.14 | 47 | 1018.8 |
| 20260507133004 | 50 | 154 | 2.6 | 7.0 | 0.00 | 0.17 | 0.14 | 45 | 1018.9 |
| 20260507132004 | 49 | 252 | 1.7 | 7.0 | 0.00 | 0.17 | 0.14 | 50 | 1018.9 |
| 20260507131503 | 49 | 161 | 0.9 | 2.6 | 0.00 | 0.17 | 0.14 | 49 | 1018.9 |
| 20260507130503 | 51 | 278 | 0.9 | 7.0 | 0.00 | 0.17 | 0.14 | 46 | 1018.9 |
| 20260507130004 | 52 | 129 | 1.7 | 10.4 | 0.00 | 0.17 | 0.14 | 46 | 1019.0 |
| 20260507125504 | 51 | 185 | 2.6 | 7.8 | 0.00 | 0.17 | 0.14 | 46 | 1018.9 |
| 20260507125004 | 51 | 152 | 2.6 | 7.0 | 0.00 | 0.17 | 0.14 | 47 | 1018.9 |
| 20260507124504 | 51 | 286 | 1.7 | 7.0 | 0.00 | 0.17 | 0.14 | 48 | 1018.9 |
| 20260507124004 | 52 | 271 | 1.7 | 5.2 | 0.00 | 0.17 | 0.14 | 46 | 1018.9 |
| 20260507122504 | 48 | 273 | 0.9 | 2.6 | 0.00 | 0.17 | 0.14 | 49 | 1018.9 |
| 20260507122004 | 47 | 254 | 1.7 | 6.1 | 0.00 | 0.17 | 0.14 | 54 | 1018.9 |
| 20260507121504 | 47 | 159 | 0.9 | 4.3 | 0.00 | 0.17 | 0.14 | 51 | 1018.9 |
| 20260507121004 | 48 | 353 | 0.9 | 2.6 | 0.00 | 0.17 | 0.14 | 50 | 1018.9 |
| 20260507120503 | 48 | 271 | 1.7 | 5.2 | 0.00 | 0.17 | 0.14 | 53 | 1018.9 |
| 20260507120004 | 47 | 186 | 1.7 | 7.0 | 0.00 | 0.17 | 0.14 | 52 | 1018.9 |
| 20260507115504 | 48 | 203 | 2.6 | 7.8 | 0.00 | 0.17 | 0.14 | 52 | 1018.9 |
| 20260507115004 | 47 | 150 | 2.6 | 7.8 | 0.00 | 0.17 | 0.14 | 53 | 1018.9 |
| 20260507114504 | 50 | 144 | 1.7 | 2.6 | 0.00 | 0.17 | 0.14 | 50 | 1018.8 |
| 20260507114004 | 48 | 247 | 1.7 | 10.4 | 0.00 | 0.17 | 0.14 | 54 | 1018.8 |
| 20260507113504 | 47 | 170 | 3.5 | 8.7 | 0.00 | 0.17 | 0.14 | 55 | 1018.9 |
| 20260507113004 | 47 | 166 | 2.6 | 7.8 | 0.00 | 0.17 | 0.14 | 54 | 1018.8 |
| 20260507112503 | 47 | 208 | 2.6 | 8.7 | 0.00 | 0.17 | 0.14 | 52 | 1018.8 |
| 20260507112004 | 49 | 155 | 1.7 | 7.0 | 0.00 | 0.17 | 0.14 | 50 | 1018.8 |
| 20260507111506 | 49 | 167 | 0.9 | 2.6 | 0.00 | 0.17 | 0.14 | 51 | 1018.9 |
| 20260507111004 | 49 | 273 | 1.7 | 4.3 | 0.00 | 0.17 | 0.14 | 51 | 1018.9 |
| 20260507110504 | 49 | 277 | 1.7 | 7.0 | 0.00 | 0.17 | 0.14 | 53 | 1018.8 |
| 20260507110004 | 47 | 163 | 2.6 | 6.1 | 0.00 | 0.17 | 0.14 | 54 | 1018.8 |
| 20260507105504 | 48 | 152 | 2.6 | 6.1 | 0.00 | 0.17 | 0.14 | 51 | 1018.8 |
| 20260507105004 | 51 | 253 | 3.5 | 7.0 | 0.00 | 0.17 | 0.14 | 50 | 1018.7 |
| 20260507104504 | 52 | 285 | 4.3 | 7.8 | 0.00 | 0.17 | 0.14 | 50 | 1018.7 |
| 20260507104004 | 51 | 286 | 2.6 | 7.0 | 0.00 | 0.17 | 0.14 | 51 | 1018.6 |
| 20260507103504 | 49 | 288 | 1.7 | 7.0 | 0.00 | 0.17 | 0.14 | 59 | 1018.5 |
| 20260507102503 | 49 | 255 | 3.5 | 7.8 | 0.00 | 0.17 | 0.14 | 52 | 1018.5 |
| 20260507102006 | 50 | 259 | 1.7 | 7.8 | 0.00 | 0.17 | 0.14 | 53 | 1018.6 |
| 20260507101504 | 49 | 270 | 2.6 | 7.0 | 0.00 | 0.17 | 0.14 | 54 | 1018.5 |
| 20260507101004 | 48 | 249 | 2.6 | 8.7 | 0.00 | 0.17 | 0.14 | 57 | 1018.6 |
| 20260507100004 | 47 | 180 | 1.7 | 7.0 | 0.00 | 0.17 | 0.14 | 56 | 1018.5 |
| 20260507095504 | 48 | 202 | 1.7 | 5.2 | 0.00 | 0.17 | 0.14 | 56 | 1018.4 |
| 20260507095004 | 48 | 175 | 2.6 | 7.8 | 0.00 | 0.17 | 0.14 | 55 | 1018.4 |
| 20260507094003 | 47 | 151 | 4.3 | 10.4 | 0.00 | 0.17 | 0.14 | 58 | 1018.4 |
| 20260507093504 | 48 | 259 | 3.5 | 8.7 | 0.00 | 0.17 | 0.14 | 55 | 1018.4 |
| 20260507093004 | 48 | 149 | 0.9 | 6.1 | 0.00 | 0.17 | 0.14 | 60 | 1018.4 |
| 20260507092504 | 47 | 138 | 2.6 | 8.7 | 0.00 | 0.17 | 0.14 | 58 | 1018.4 |
| 20260507092004 | 47 | 247 | 2.6 | 7.0 | 0.00 | 0.17 | 0.14 | 60 | 1018.4 |
| 20260507091503 | 46 | 257 | 1.7 | 8.7 | 0.00 | 0.17 | 0.14 | 66 | 1018.3 |
| 20260507091004 | 45 | 133 | 2.6 | 7.0 | 0.00 | 0.17 | 0.14 | 63 | 1018.3 |
| 20260507090503 | 46 | 228 | 1.7 | 7.8 | 0.00 | 0.17 | 0.14 | 62 | 1018.3 |
| 20260507090004 | 45 | 177 | 1.7 | 6.1 | 0.00 | 0.18 | 0.14 | 66 | 1018.2 |
| 20260507085503 | 44 | 155 | 2.6 | 5.2 | 0.00 | 0.18 | 0.14 | 65 | 1018.2 |
| 20260507085003 | 46 | 184 | 1.7 | 4.3 | 0.00 | 0.18 | 0.14 | 66 | 1018.1 |
| 20260507084503 | 46 | 174 | 0.9 | 4.3 | 0.00 | 0.19 | 0.14 | 64 | 1018.2 |
| 20260507083504 | 44 | 175 | 1.7 | 7.0 | 0.00 | 0.20 | 0.14 | 66 | 1018.0 |
| 20260507082504 | 44 | 209 | 1.7 | 2.6 | 0.00 | 0.21 | 0.14 | 67 | 1018.0 |
| 20260507082004 | 43 | 152 | 1.7 | 7.0 | 0.00 | 0.21 | 0.14 | 67 | 1018.0 |
| 20260507081504 | 44 | 150 | 2.6 | 6.1 | 0.00 | 0.21 | 0.14 | 67 | 1017.9 |
| 20260507081004 | 43 | 210 | 1.7 | 7.8 | 0.00 | 0.21 | 0.14 | 67 | 1017.8 |
| 20260507080504 | 44 | 250 | 2.6 | 6.1 | 0.00 | 0.21 | 0.14 | 66 | 1017.8 |
| 20260507075004 | 43 | 207 | 0.9 | 7.8 | 0.00 | 0.21 | 0.14 | 69 | 1017.6 |
| 20260507074503 | 43 | 253 | 1.7 | 4.3 | 0.00 | 0.21 | 0.14 | 70 | 1017.6 |
| 20260507074003 | 42 | 229 | 1.7 | 5.2 | 0.00 | 0.21 | 0.14 | 69 | 1017.5 |
| 20260507073503 | 42 | 183 | 1.7 | 2.6 | 0.00 | 0.21 | 0.14 | 71 | 1017.5 |
| 20260507073004 | 41 | 205 | 0.9 | 2.6 | 0.00 | 0.21 | 0.14 | 72 | 1017.5 |
| 20260507072504 | 41 | 250 | 1.7 | 6.1 | 0.00 | 0.21 | 0.14 | 70 | 1017.5 |
| 20260507072004 | 41 | 296 | 1.7 | 5.2 | 0.00 | 0.22 | 0.14 | 71 | 1017.4 |
| 20260507071504 | 41 | 279 | 3.5 | 6.1 | 0.00 | 0.22 | 0.14 | 71 | 1017.4 |
| 20260507071004 | 40 | 277 | 0.9 | 5.2 | 0.00 | 0.22 | 0.14 | 72 | 1017.3 |
| 20260507070504 | 40 | 205 | 1.7 | 2.6 | 0.00 | 0.23 | 0.14 | 73 | 1017.3 |
| 20260507070009 | 40 | 167 | 0.9 | 2.6 | 0.00 | 0.23 | 0.14 | 73 | 1017.2 |
| 20260507065504 | 40 | 197 | 1.7 | 2.6 | 0.00 | 0.23 | 0.14 | 73 | 1017.2 |
| 20260507065004 | 40 | 205 | 1.7 | 7.0 | 0.00 | 0.24 | 0.14 | 74 | 1017.2 |
| 20260507064503 | 39 | 187 | 1.7 | 2.6 | 0.00 | 0.24 | 0.14 | 75 | 1017.2 |
| 20260507064004 | 39 | 166 | 0.9 | 4.3 | 0.00 | 0.24 | 0.14 | 76 | 1017.1 |
| 20260507063504 | 39 | 192 | 1.7 | 4.3 | 0.00 | 0.24 | 0.14 | 77 | 1017.1 |
| 20260507063004 | 39 | 189 | 0.9 | 2.6 | 0.00 | 0.24 | 0.14 | 77 | 1017.1 |
| 20260507062003 | 39 | 280 | 1.7 | 6.1 | 0.00 | 0.24 | 0.14 | 79 | 1017.2 |
| 20260507061503 | 39 | 275 | 1.7 | 6.1 | 0.00 | 0.25 | 0.14 | 80 | 1017.2 |
| 20260507061003 | 38 | 203 | 1.7 | 4.3 | 0.00 | 0.25 | 0.14 | 81 | 1017.2 |
| 20260507060504 | 38 | 139 | 0.9 | 4.3 | 0.00 | 0.26 | 0.14 | 82 | 1017.1 |
| 20260507060003 | 37 | 229 | 0.9 | 4.3 | 0.00 | 0.26 | 0.14 | 83 | 1017.1 |
| 20260507055004 | 37 | 193 | 0.9 | 1.7 | 0.00 | 0.27 | 0.14 | 85 | 1016.9 |
| 20260507054004 | 37 | 125 | 0.9 | 7.0 | 0.00 | 0.28 | 0.14 | 86 | 1016.9 |
| 20260507053504 | 37 | 248 | 1.7 | 5.2 | 0.00 | 0.28 | 0.14 | 85 | 1016.9 |
| 20260507053004 | 37 | 234 | 1.7 | 7.0 | 0.00 | 0.28 | 0.14 | 85 | 1016.8 |
| 20260507052003 | 37 | 205 | 0.9 | 5.2 | 0.00 | 0.28 | 0.14 | 85 | 1016.7 |
| 20260507051503 | 37 | 267 | 1.7 | 6.1 | 0.00 | 0.28 | 0.14 | 84 | 1016.8 |
| 20260507051003 | 37 | 161 | 1.7 | 7.0 | 0.00 | 0.28 | 0.14 | 84 | 1016.7 |
| 20260507050504 | 37 | 176 | 1.7 | 7.8 | 0.00 | 0.29 | 0.14 | 84 | 1016.6 |
| 20260507050004 | 37 | 203 | 2.6 | 7.0 | 0.00 | 0.29 | 0.14 | 84 | 1016.6 |
| 20260507045504 | 37 | 156 | 1.7 | 5.2 | 0.00 | 0.30 | 0.14 | 85 | 1016.5 |
| 20260507045003 | 37 | 252 | 1.7 | 7.0 | 0.00 | 0.30 | 0.14 | 85 | 1016.5 |
| 20260507044504 | 37 | 291 | 1.7 | 7.0 | 0.00 | 0.31 | 0.14 | 85 | 1016.4 |
| 20260507043004 | 37 | 163 | 0.9 | 7.8 | 0.00 | 0.31 | 0.14 | 83 | 1016.5 |
| 20260507042503 | 37 | 152 | 3.5 | 8.7 | 0.00 | 0.31 | 0.14 | 83 | 1016.4 |
| 20260507042004 | 37 | 243 | 1.7 | 6.1 | 0.00 | 0.31 | 0.14 | 83 | 1016.3 |
| 20260507041004 | 37 | 263 | 2.6 | 6.1 | 0.00 | 0.31 | 0.14 | 83 | 1016.2 |
| 20260507040004 | 37 | 205 | 0.9 | 2.6 | 0.00 | 0.31 | 0.14 | 83 | 1016.1 |
| 20260507035504 | 37 | 223 | 0.9 | 4.3 | 0.00 | 0.32 | 0.14 | 84 | 1016.1 |
| 20260507035004 | 37 | 259 | 1.7 | 2.6 | 0.00 | 0.32 | 0.14 | 84 | 1016.1 |
| 20260507034504 | 37 | 228 | 0.9 | 2.6 | 0.00 | 0.32 | 0.14 | 83 | 1016.0 |
| 20260507034004 | 37 | 160 | 1.7 | 6.1 | 0.00 | 0.33 | 0.14 | 84 | 1016.1 |
| 20260507033504 | 37 | 174 | 0.9 | 4.3 | 0.00 | 0.33 | 0.14 | 83 | 1016.1 |
| 20260507033004 | 37 | 256 | 1.7 | 6.1 | 0.00 | 0.33 | 0.14 | 83 | 1016.2 |
| 20260507032003 | 37 | 168 | 0.9 | 2.6 | 0.00 | 0.33 | 0.14 | 83 | 1016.1 |
| 20260507031003 | 37 | 251 | 1.7 | 5.2 | 0.00 | 0.33 | 0.14 | 84 | 1016.0 |
| 20260507030504 | 36 | 275 | 1.7 | 7.0 | 0.00 | 0.33 | 0.14 | 84 | 1015.9 |
| 20260507030004 | 36 | 271 | 1.7 | 2.6 | 0.00 | 0.33 | 0.14 | 83 | 1015.8 |
| 20260507025504 | 36 | 290 | 2.6 | 5.2 | 0.00 | 0.33 | 0.14 | 83 | 1015.7 |
| 20260507025004 | 37 | 170 | 0.9 | 5.2 | 0.00 | 0.33 | 0.14 | 83 | 1015.6 |
| 20260507024504 | 37 | 185 | 1.7 | 7.0 | 0.01 | 0.33 | 0.14 | 84 | 1015.6 |
| 20260507024004 | 37 | 228 | 2.6 | 5.2 | 0.01 | 0.33 | 0.14 | 84 | 1015.6 |
| 20260507023504 | 36 | 192 | 1.7 | 7.0 | 0.01 | 0.33 | 0.14 | 85 | 1015.5 |
| 20260507023004 | 36 | 257 | 1.7 | 6.1 | 0.01 | 0.33 | 0.14 | 85 | 1015.6 |
| 20260507022504 | 36 | 234 | 1.7 | 4.3 | 0.01 | 0.33 | 0.14 | 85 | 1015.6 |
| 20260507022004 | 36 | 254 | 1.7 | 6.1 | 0.01 | 0.33 | 0.14 | 85 | 1015.6 |
| 20260507021504 | 36 | 324 | 0.9 | 4.3 | 0.01 | 0.33 | 0.14 | 85 | 1015.6 |
| 20260507021004 | 36 | 240 | 1.7 | 5.2 | 0.01 | 0.33 | 0.14 | 85 | 1015.5 |
| 20260507020504 | 36 | 282 | 1.7 | 2.6 | 0.01 | 0.33 | 0.14 | 85 | 1015.5 |
| 20260507015504 | 36 | 164 | 2.6 | 6.1 | 0.01 | 0.33 | 0.14 | 86 | 1015.4 |
| 20260507015004 | 36 | 256 | 0.9 | 6.1 | 0.01 | 0.33 | 0.14 | 86 | 1015.4 |
| 20260507014504 | 36 | 268 | 1.7 | 5.2 | 0.00 | 0.32 | 0.13 | 86 | 1015.4 |
| 20260507014004 | 36 | 245 | 2.6 | 8.7 | 0.00 | 0.32 | 0.13 | 86 | 1015.4 |
| 20260507013504 | 36 | 241 | 1.7 | 7.0 | 0.00 | 0.32 | 0.13 | 87 | 1015.3 |
| 20260507013004 | 36 | 209 | 4.3 | 10.4 | 0.00 | 0.32 | 0.13 | 87 | 1015.3 |
| 20260507012504 | 36 | 250 | 1.7 | 4.3 | 0.00 | 0.32 | 0.13 | 87 | 1015.3 |
| 20260507010504 | 36 | 71 | 0.0 | 4.3 | 0.02 | 0.32 | 0.13 | 88 | 1015.2 |
| 20260507010004 | 35 | 183 | 1.7 | 4.3 | 0.02 | 0.32 | 0.13 | 89 | 1015.2 |
| 20260507005504 | 35 | 300 | 1.7 | 2.6 | 0.02 | 0.32 | 0.13 | 88 | 1015.1 |
| 20260507005004 | 35 | 337 | 1.7 | 2.6 | 0.02 | 0.32 | 0.13 | 88 | 1015.1 |
| 20260507003504 | 35 | 68 | 0.0 | 2.6 | 0.03 | 0.32 | 0.13 | 88 | 1015.1 |
| 20260507003004 | 35 | 103 | 1.7 | 7.8 | 0.03 | 0.32 | 0.13 | 88 | 1015.1 |
| 20260507002504 | 35 | 152 | 2.6 | 5.2 | 0.03 | 0.32 | 0.13 | 88 | 1015.2 |
| 20260507002004 | 36 | 273 | 1.7 | 10.4 | 0.02 | 0.31 | 0.13 | 88 | 1015.1 |
| 20260507001004 | 36 | 167 | 1.7 | 12.2 | 0.02 | 0.31 | 0.12 | 88 | 1015.0 |
| 20260507000504 | 36 | 262 | 1.7 | 5.2 | 0.02 | 0.31 | 0.12 | 88 | 1015.0 |
| 20260507000004 | 36 | 55 | 0.9 | 2.6 | 0.03 | 0.31 | 0.12 | 88 | 1014.9 |
| 20260506235503 | 36 | 285 | 1.7 | 7.0 | 0.03 | 0.30 | 0.11 | 88 | 1014.9 |
| 20260506235004 | 36 | 274 | 2.6 | 6.1 | 0.05 | 0.30 | 0.11 | 89 | 1015.0 |
| 20260506234004 | 35 | 182 | 0.9 | 10.4 | 0.07 | 0.30 | 0.11 | 89 | 1014.7 |
| 20260506233004 | 35 | 297 | 1.7 | 7.0 | 0.08 | 0.29 | 0.10 | 89 | 1014.7 |
| 20260506232504 | 35 | 131 | 0.9 | 2.6 | 0.09 | 0.29 | 0.10 | 90 | 1014.7 |
| 20260506232003 | 34 | 126 | 0.0 | 1.7 | 0.09 | 0.29 | 0.10 | 90 | 1014.7 |
| 20260506231504 | 34 | 66 | 0.0 | 0.9 | 0.09 | 0.29 | 0.10 | 89 | 1014.6 |
| 20260506230504 | 34 | 74 | 0.9 | 1.7 | 0.09 | 0.28 | 0.09 | 89 | 1014.7 |
| 20260506230004 | 34 | 348 | 1.7 | 2.6 | 0.09 | 0.28 | 0.09 | 89 | 1014.7 |
| 20260506225504 | 34 | 29 | 0.9 | 1.7 | 0.09 | 0.27 | 0.08 | 89 | 1014.8 |
| 20260506224504 | 34 | 171 | 0.9 | 2.6 | 0.07 | 0.24 | 0.06 | 88 | 1014.9 |
| 20260506223504 | 35 | 283 | 2.6 | 7.0 | 0.06 | 0.22 | 0.03 | 88 | 1014.9 |
| 20260506223004 | 35 | 287 | 2.6 | 7.8 | 0.05 | 0.21 | 0.02 | 88 | 1014.9 |
| 20260506222004 | 35 | 318 | 0.9 | 6.1 | 0.04 | 0.20 | 0.02 | 88 | 1014.7 |
| 20260506221004 | 35 | 70 | 0.9 | 4.3 | 0.03 | 0.20 | 0.01 | 87 | 1014.6 |
| 20260506220504 | 35 | 203 | 1.7 | 6.1 | 0.03 | 0.20 | 0.01 | 86 | 1014.7 |
| 20260506220004 | 34 | 127 | 2.6 | 6.1 | 0.02 | 0.19 | 0.00 | 85 | 1014.7 |
| 20260506215504 | 35 | 135 | 1.7 | 7.0 | 0.02 | 0.18 | 0.18 | 84 | 1014.7 |
| 20260506215004 | 36 | 238 | 0.9 | 4.3 | 0.02 | 0.18 | 0.18 | 83 | 1014.7 |
| 20260506214504 | 36 | 207 | 2.6 | 6.1 | 0.01 | 0.17 | 0.17 | 81 | 1014.8 |
| 20260506214003 | 37 | 257 | 3.5 | 15.6 | 0.01 | 0.17 | 0.17 | 79 | 1014.8 |
| 20260506213504 | 39 | 270 | 4.3 | 11.3 | 0.00 | 0.17 | 0.17 | 78 | 1014.6 |
| 20260506213004 | 39 | 264 | 3.5 | 8.7 | 0.00 | 0.17 | 0.17 | 77 | 1014.4 |
| 20260506212504 | 39 | 281 | 2.6 | 7.8 | 0.00 | 0.17 | 0.17 | 77 | 1014.3 |
| 20260506211504 | 39 | 142 | 0.0 | 4.3 | 0.00 | 0.17 | 0.17 | 77 | 1014.1 |
| 20260506211004 | 39 | 145 | 1.7 | 7.0 | 0.00 | 0.17 | 0.17 | 77 | 1014.1 |
| 20260506210503 | 39 | 168 | 1.7 | 7.0 | 0.00 | 0.17 | 0.17 | 77 | 1014.1 |
| 20260506210004 | 38 | 34 | 0.9 | 5.2 | 0.00 | 0.17 | 0.17 | 77 | 1014.2 |
| 20260506204504 | 38 | 15 | 0.9 | 1.7 | 0.00 | 0.17 | 0.17 | 78 | 1014.0 |
| 20260506204004 | 39 | 313 | 0.9 | 2.6 | 0.00 | 0.17 | 0.17 | 78 | 1014.1 |
| 20260506203004 | 39 | 193 | 0.0 | 5.2 | 0.00 | 0.17 | 0.17 | 77 | 1014.1 |
| 20260506202503 | 39 | 151 | 1.7 | 5.2 | 0.00 | 0.17 | 0.17 | 77 | 1014.2 |
| 20260506202003 | 39 | 159 | 0.9 | 2.6 | 0.00 | 0.17 | 0.17 | 77 | 1014.2 |
| 20260506201503 | 39 | 168 | 1.7 | 4.3 | 0.00 | 0.17 | 0.17 | 76 | 1014.2 |
| 20260506201004 | 39 | 153 | 0.9 | 2.6 | 0.00 | 0.17 | 0.17 | 76 | 1014.1 |
| 20260506200503 | 39 | 198 | 0.9 | 2.6 | 0.00 | 0.17 | 0.17 | 76 | 1014.1 |
| 20260506195504 | 39 | 178 | 0.9 | 6.1 | 0.00 | 0.17 | 0.17 | 76 | 1014.0 |
| 20260506193504 | 39 | 324 | 0.9 | 2.6 | 0.00 | 0.17 | 0.17 | 77 | 1014.1 |
| 20260506193004 | 39 | 281 | 1.7 | 5.2 | 0.00 | 0.17 | 0.17 | 77 | 1014.2 |
| 20260506192504 | 39 | 284 | 1.7 | 4.3 | 0.00 | 0.17 | 0.17 | 77 | 1014.2 |
| 20260506192004 | 39 | 252 | 0.9 | 2.6 | 0.00 | 0.17 | 0.17 | 77 | 1014.1 |
| 20260506191504 | 39 | 277 | 1.7 | 6.1 | 0.00 | 0.17 | 0.17 | 76 | 1014.0 |
| 20260506191004 | 39 | 310 | 1.7 | 6.1 | 0.00 | 0.17 | 0.17 | 76 | 1014.0 |
| 20260506190504 | 40 | 274 | 5.2 | 10.4 | 0.00 | 0.17 | 0.17 | 76 | 1013.9 |
| 20260506185503 | 40 | 264 | 2.6 | 5.2 | 0.00 | 0.17 | 0.17 | 76 | 1013.9 |
| 20260506185004 | 40 | 265 | 1.7 | 5.2 | 0.00 | 0.17 | 0.17 | 76 | 1013.7 |
| 20260506184504 | 41 | 257 | 2.6 | 7.0 | 0.00 | 0.17 | 0.17 | 75 | 1013.7 |
| 20260506184004 | 41 | 248 | 2.6 | 5.2 | 0.00 | 0.17 | 0.17 | 75 | 1013.8 |
| 20260506183003 | 41 | 278 | 3.5 | 7.8 | 0.00 | 0.17 | 0.17 | 73 | 1013.7 |
| 20260506182503 | 41 | 214 | 6.1 | 11.3 | 0.00 | 0.17 | 0.17 | 71 | 1013.9 |
| 20260506182004 | 41 | 257 | 2.6 | 7.0 | 0.00 | 0.17 | 0.17 | 71 | 1013.8 |
| 20260506181504 | 41 | 154 | 2.6 | 7.8 | 0.00 | 0.17 | 0.17 | 70 | 1013.8 |
| 20260506181003 | 41 | 286 | 1.7 | 7.0 | 0.00 | 0.17 | 0.17 | 70 | 1013.8 |
| 20260506180004 | 41 | 262 | 2.6 | 8.7 | 0.00 | 0.17 | 0.17 | 68 | 1013.7 |
| 20260506175503 | 42 | 208 | 2.6 | 8.7 | 0.00 | 0.17 | 0.17 | 66 | 1013.7 |
| 20260506175003 | 42 | 169 | 2.6 | 7.8 | 0.00 | 0.17 | 0.17 | 64 | 1013.7 |
| 20260506174504 | 42 | 242 | 2.6 | 10.4 | 0.00 | 0.17 | 0.17 | 63 | 1013.7 |
| 20260506174004 | 43 | 153 | 2.6 | 6.1 | 0.00 | 0.17 | 0.17 | 64 | 1013.5 |
| 20260506173003 | 43 | 254 | 0.9 | 7.8 | 0.00 | 0.17 | 0.17 | 63 | 1013.4 |
| 20260506172504 | 43 | 201 | 3.5 | 8.7 | 0.00 | 0.17 | 0.17 | 62 | 1013.5 |
| 20260506172003 | 43 | 262 | 4.3 | 10.4 | 0.00 | 0.17 | 0.17 | 63 | 1013.5 |
| 20260506171504 | 43 | 268 | 5.2 | 10.4 | 0.00 | 0.17 | 0.17 | 64 | 1013.5 |
| 20260506171004 | 43 | 223 | 4.3 | 11.3 | 0.00 | 0.17 | 0.17 | 63 | 1013.5 |
| 20260506170503 | 43 | 271 | 4.3 | 8.7 | 0.00 | 0.17 | 0.17 | 63 | 1013.5 |
| 20260506170004 | 43 | 289 | 4.3 | 10.4 | 0.00 | 0.17 | 0.17 | 64 | 1013.4 |
| 20260506165504 | 43 | 269 | 5.2 | 11.3 | 0.00 | 0.17 | 0.17 | 63 | 1013.6 |
| 20260506165004 | 43 | 268 | 2.6 | 10.4 | 0.00 | 0.17 | 0.17 | 64 | 1013.6 |
| 20260506164504 | 43 | 166 | 1.7 | 6.1 | 0.00 | 0.17 | 0.17 | 64 | 1013.5 |
| 20260506164004 | 43 | 223 | 1.7 | 7.8 | 0.00 | 0.17 | 0.17 | 63 | 1013.5 |
| 20260506163503 | 43 | 222 | 1.7 | 7.8 | 0.00 | 0.17 | 0.17 | 63 | 1013.5 |
| 20260506162504 | 44 | 217 | 3.5 | 7.8 | 0.00 | 0.17 | 0.17 | 61 | 1013.6 |
| 20260506162004 | 43 | 260 | 2.6 | 8.7 | 0.00 | 0.17 | 0.17 | 63 | 1013.6 |
| 20260506161504 | 43 | 150 | 3.5 | 10.4 | 0.00 | 0.17 | 0.17 | 62 | 1013.7 |
| 20260506160504 | 44 | 163 | 1.7 | 6.1 | 0.00 | 0.17 | 0.17 | 60 | 1013.6 |
| 20260506160004 | 46 | 236 | 2.6 | 8.7 | 0.00 | 0.17 | 0.17 | 59 | 1013.6 |
| 20260506155504 | 46 | 269 | 4.3 | 7.8 | 0.00 | 0.17 | 0.17 | 58 | 1013.7 |
| 20260506155003 | 45 | 170 | 4.3 | 10.4 | 0.00 | 0.17 | 0.17 | 57 | 1013.6 |
| 20260506154004 | 44 | 264 | 5.2 | 8.7 | 0.00 | 0.17 | 0.17 | 62 | 1013.8 |
| 20260506153504 | 44 | 176 | 1.7 | 6.1 | 0.00 | 0.17 | 0.17 | 64 | 1013.8 |
| 20260506153004 | 44 | 241 | 2.6 | 5.2 | 0.00 | 0.17 | 0.17 | 64 | 1013.6 |
| 20260506152504 | 44 | 217 | 3.5 | 7.8 | 0.00 | 0.17 | 0.17 | 62 | 1013.7 |
| 20260506151504 | 43 | 198 | 2.6 | 7.8 | 0.00 | 0.17 | 0.17 | 64 | 1013.7 |
| 20260506151004 | 43 | 210 | 2.6 | 7.0 | 0.00 | 0.17 | 0.17 | 64 | 1013.7 |
| 20260506150504 | 43 | 210 | 3.5 | 10.4 | 0.00 | 0.17 | 0.17 | 63 | 1013.8 |
| 20260506150004 | 43 | 268 | 3.5 | 11.3 | 0.00 | 0.17 | 0.17 | 65 | 1013.9 |
| 20260506145504 | 43 | 172 | 4.3 | 13.9 | 0.00 | 0.17 | 0.17 | 64 | 1013.9 |
| 20260506145003 | 44 | 265 | 3.5 | 10.4 | 0.00 | 0.17 | 0.17 | 62 | 1013.9 |
| 20260506144504 | 43 | 236 | 2.6 | 10.4 | 0.00 | 0.17 | 0.17 | 65 | 1013.8 |
| 20260506144003 | 45 | 257 | 2.6 | 11.3 | 0.00 | 0.17 | 0.17 | 65 | 1013.8 |
| 20260506143504 | 43 | 177 | 1.7 | 7.0 | 0.00 | 0.17 | 0.17 | 66 | 1013.6 |
| 20260506143004 | 43 | 223 | 2.6 | 8.7 | 0.00 | 0.17 | 0.17 | 68 | 1013.7 |
| 20260506142504 | 42 | 198 | 2.6 | 7.0 | 0.00 | 0.18 | 0.17 | 67 | 1013.7 |